N818TW KJFK-KTEB

Flight info

Callsign N818TW
Flight time N/A
Altitude VFR/050
Route
Aircraft B407/L-DOV/C

Departure

Time 2026-05-08 22:26
Airport John F. Kennedy International Airport (KJFK)

Arrival

Time N/A
Airport Teterboro Airport (KTEB)
Time Latitude Longitude Altitude Speed Heading
2026-05-08 22:12 40.64995 -73.80678 15 ft 0 kts 336°
2026-05-08 22:13 40.64986 -73.80677 16 ft 2 kts 146°
2026-05-08 22:13 40.64966 -73.80668 17 ft 3 kts 167°
2026-05-08 22:14 40.64955 -73.80665 15 ft 0 kts 165°
2026-05-08 22:14 40.64955 -73.80663 25 ft 2 kts 165°
2026-05-08 22:15 40.64895 -73.80613 23 ft 14 kts 165°
2026-05-08 22:15 40.64831 -73.80571 26 ft 17 kts 168°
2026-05-08 22:15 40.64742 -73.80518 20 ft 8 kts 161°
2026-05-08 22:15 40.64698 -73.80509 25 ft 9 kts 165°
2026-05-08 22:16 40.64632 -73.80521 21 ft 14 kts 165°
2026-05-08 22:16 40.64535 -73.80400 27 ft 24 kts 141°
2026-05-08 22:16 40.64460 -73.80253 33 ft 30 kts 107°
2026-05-08 22:16 40.64342 -73.79987 37 ft 33 kts 123°
2026-05-08 22:17 40.64202 -73.79771 22 ft 31 kts 133°
2026-05-08 22:17 40.64096 -73.79560 18 ft 22 kts 123°
2026-05-08 22:17 40.64042 -73.79435 18 ft 9 kts 128°
2026-05-08 22:17 40.63992 -73.79332 29 ft 19 kts 131°
2026-05-08 22:18 40.63928 -73.79187 27 ft 21 kts 133°
2026-05-08 22:18 40.63840 -73.79001 17 ft 15 kts 136°
2026-05-08 22:18 40.63822 -73.78949 17 ft 5 kts 138°
2026-05-08 22:18 40.63794 -73.78903 19 ft 13 kts 121°
2026-05-08 22:19 40.63785 -73.78907 22 ft 9 kts 214°
2026-05-08 22:19 40.63704 -73.78904 20 ft 11 kts 115°
2026-05-08 22:19 40.63604 -73.78689 31 ft 43 kts 128°
2026-05-08 22:19 40.63479 -73.78416 18 ft 19 kts 122°
2026-05-08 22:20 40.63442 -73.78320 45 ft 11 kts 127°
2026-05-08 22:20 40.63381 -73.78243 18 ft 7 kts 194°
2026-05-08 22:20 40.63377 -73.78236 17 ft 0 kts 213°
2026-05-08 22:21 40.63373 -73.78238 21 ft 5 kts 213°
2026-05-08 22:21 40.63334 -73.78293 30 ft 10 kts 313°
2026-05-08 22:22 40.63388 -73.78464 85 ft 52 kts 313°
2026-05-08 22:22 40.63640 -73.79008 82 ft 88 kts 304°
2026-05-08 22:22 40.63963 -73.79694 141 ft 86 kts 302°
2026-05-08 22:22 40.64195 -73.80294 301 ft 71 kts 301°
2026-05-08 22:23 40.64018 -73.80917 541 ft 62 kts 255°
2026-05-08 22:23 40.63883 -73.81519 374 ft 75 kts 262°
2026-05-08 22:23 40.63802 -73.82205 473 ft 75 kts 264°
2026-05-08 22:23 40.63734 -73.82910 460 ft 82 kts 263°
2026-05-08 22:24 40.63618 -73.83641 484 ft 85 kts 252°
2026-05-08 22:24 40.63437 -73.84368 545 ft 78 kts 250°
2026-05-08 22:24 40.63209 -73.84995 552 ft 83 kts 243°
2026-05-08 22:24 40.62903 -73.85726 459 ft 91 kts 240°
2026-05-08 22:25 40.62635 -73.86402 576 ft 80 kts 244°
2026-05-08 22:25 40.62358 -73.87111 479 ft 96 kts 240°
2026-05-08 22:25 40.62177 -73.87927 480 ft 81 kts 265°
2026-05-08 22:25 40.62094 -73.88640 499 ft 80 kts 260°
2026-05-08 22:26 40.61941 -73.89314 539 ft 79 kts 251°
2026-05-08 22:26 40.61801 -73.89987 614 ft 78 kts 258°
2026-05-08 22:26 40.61676 -73.90800 458 ft 92 kts 261°
2026-05-08 22:26 40.61583 -73.91513 700 ft 70 kts 262°